Date String (YYYY-MM-DD hh:mm:ss) UTC,Instrument flags,Ambient pressure (hPa),Sample flow (lpm),Bypass flow (lpm),Sample temperature (°C),Ambient temperature (°C),ASC tube jacket temperature (°C),LED temperature (°C),Box temperature (°C),Sample RH (%),Span deviation,Mass concentration (μg/m³),Mass concentration (μg/m³),Mass concentration (μg/m³)
DateTimeUTC,F1_M11,P_M11,Q1_M11,Q2_M11,T1_M11,T2_M11,T3_M11,T4_M11,T5_M11,U1_M11,ZSPAN_M11,X0_M11,X2_M11,X1_M11
2022-07-30 13:00:00,,0830.5,5.00,0.00,30.2,29.1,00.0,38.9,32.0,32.9,-000.5,0013.15,0007.32,0006.65
2022-07-30 13:01:00,,0830.5,5.00,0.00,30.2,29.1,00.0,38.9,32.1,33.0,-000.4,0013.36,0007.48,0006.84
2022-07-30 13:02:00,,0830.4,5.01,0.00,30.2,29.2,00.0,38.9,32.1,33.2,-000.8,0013.24,0007.63,0006.96
2022-07-30 13:03:00,,0830.4,5.00,0.00,30.2,29.2,00.0,39.0,32.1,33.5,-000.8,0013.32,0007.78,0007.12
2022-07-30 13:04:00,,0830.4,4.99,0.00,30.2,29.2,00.0,39.0,32.1,32.7,-000.7,0013.25,0007.88,0007.26
2022-07-30 13:05:00,,0830.4,5.00,0.00,30.2,29.2,00.0,39.0,32.1,32.3,-000.7,0013.60,0008.01,0007.35
2022-07-30 13:06:00,,0830.4,5.00,0.00,30.3,29.2,00.0,39.0,32.1,31.6,-000.6,0013.55,0008.00,0007.37
2022-07-30 13:07:00,,0830.4,5.00,0.00,30.3,29.3,00.0,39.0,32.1,31.7,-000.4,0013.30,0008.06,0007.40
2022-07-30 13:08:00,,0830.4,5.00,0.00,30.3,29.3,00.0,39.0,32.2,31.3,-000.3,0014.15,0008.09,0007.39
2022-07-30 13:09:00,,0830.4,5.00,0.00,30.3,29.3,00.0,39.0,32.2,30.7,-000.1,0014.05,0008.00,0007.30
2022-07-30 13:10:00,,0830.4,4.99,0.00,30.3,29.3,00.0,39.1,32.2,30.2,-000.1,0013.69,0007.89,0007.18
2022-07-30 13:11:00,,0830.4,5.01,0.00,30.3,29.3,00.0,39.1,32.2,30.6,-000.4,0013.38,0007.81,0007.07
2022-07-30 13:12:00,,0830.4,5.00,0.00,30.4,29.3,00.0,39.1,32.2,31.7,-000.6,0013.24,0007.79,0007.01
2022-07-30 13:13:00,,0830.4,5.00,0.00,30.4,29.3,00.0,39.1,32.3,31.7,-000.3,0013.44,0007.80,0007.02
2022-07-30 13:14:00,,0830.5,5.00,0.00,30.4,29.4,00.0,39.1,32.3,31.8,-000.4,0013.57,0007.78,0007.00
2022-07-30 13:15:00,,0830.5,5.01,0.00,30.4,29.4,00.0,39.1,32.3,32.2,-000.6,0013.74,0007.83,0007.01
2022-07-30 13:16:00,,0830.5,5.00,0.00,30.4,29.4,00.0,39.2,32.3,32.9,-000.9,0013.41,0007.88,0007.08
2022-07-30 13:17:00,,0830.4,5.01,0.00,30.4,29.4,00.0,39.2,32.3,33.1,-001.3,0013.92,0007.98,0007.16
2022-07-30 13:18:00,,0830.5,5.01,0.00,30.4,29.4,00.0,39.2,32.3,32.9,-001.6,0014.24,0007.99,0007.21
2022-07-30 13:19:00,,0830.4,5.00,0.00,30.4,29.4,00.0,39.2,32.3,32.7,-001.8,0013.30,0007.98,0007.25
2022-07-30 13:20:00,,0830.4,5.01,0.00,30.4,29.4,00.0,39.2,32.3,32.8,-002.0,0013.19,0008.08,0007.35
2022-07-30 13:21:00,,0830.4,4.99,0.00,30.4,28.9,00.0,39.2,32.2,31.9,-002.0,0013.41,0008.21,0007.49
2022-07-30 13:22:00,,0830.4,5.00,0.00,30.4,28.1,00.0,39.1,32.0,31.9,-001.9,0013.54,0008.29,0007.56
2022-07-30 13:23:00,,0830.3,4.99,0.00,30.3,27.7,00.0,39.1,31.9,32.8,-001.9,0013.63,0008.34,0007.63
2022-07-30 13:24:00,,0830.4,5.01,0.00,30.2,27.6,00.0,39.1,31.8,30.8,-002.0,0013.43,0008.29,0007.59
2022-07-30 13:25:00,,0830.4,4.99,0.00,30.1,27.7,00.0,39.0,31.7,31.7,-002.0,0013.08,0008.20,0007.52
2022-07-30 13:26:00,,0830.4,5.01,0.00,30.1,27.8,00.0,39.0,31.7,32.6,-002.2,0012.83,0008.09,0007.45
2022-07-30 13:27:00,,0830.5,4.99,0.00,30.0,27.9,00.0,38.9,31.8,30.9,-002.1,0012.60,0007.93,0007.31
2022-07-30 13:28:00,,0830.5,5.01,0.00,30.0,28.1,00.0,38.9,31.8,29.9,-002.0,0012.02,0007.71,0007.09
2022-07-30 13:29:00,,0830.5,5.00,0.00,30.0,28.2,00.0,38.9,31.8,29.6,-002.0,0011.30,0007.52,0006.89
2022-07-30 13:30:00,,0830.5,5.00,0.00,30.0,28.3,00.0,38.9,31.8,29.3,-001.9,0011.24,0007.33,0006.67
2022-07-30 13:31:00,,0830.5,5.00,0.00,30.0,28.4,00.0,38.9,31.8,28.3,-001.7,0010.93,0007.12,0006.47
2022-07-30 13:32:00,,0830.5,5.00,0.00,30.0,28.5,00.0,38.9,31.8,28.2,-001.7,0010.62,0006.88,0006.25
2022-07-30 13:33:00,,0830.5,4.99,0.00,30.0,28.6,00.0,38.9,31.9,27.6,-001.8,0010.18,0006.64,0006.04
2022-07-30 13:34:00,,0830.4,5.00,0.00,30.0,28.7,00.0,38.9,31.9,27.9,-001.9,0009.82,0006.38,0005.80
2022-07-30 13:35:00,,0830.4,4.99,0.00,30.0,28.7,00.0,38.9,31.9,27.8,-002.0,0009.50,0006.20,0005.62
2022-07-30 13:36:00,,0830.5,5.01,0.00,30.0,28.8,00.0,38.9,31.9,27.5,-001.9,0009.38,0006.04,0005.48
2022-07-30 13:37:00,,0830.4,5.00,0.00,30.0,28.8,00.0,38.9,31.9,27.3,-001.4,0009.20,0005.86,0005.30
2022-07-30 13:38:00,,0830.4,5.01,0.00,30.0,28.8,00.0,38.9,32.0,27.5,0000.0,0009.20,0005.73,0005.18
2022-07-30 13:39:00,,0830.5,4.98,0.00,30.1,28.9,00.0,38.9,32.0,27.4,-000.2,0009.10,0005.64,0005.11
2022-07-30 13:40:00,,0830.4,5.01,0.00,30.1,28.9,00.0,38.9,32.0,27.6,0000.0,0008.88,0005.58,0005.06
2022-07-30 13:41:00,,0830.4,5.00,0.00,30.1,28.9,00.0,38.9,32.0,27.5,0000.0,0008.63,0005.51,0005.03
2022-07-30 13:42:00,,0830.4,5.00,0.00,30.1,29.0,00.0,38.9,32.0,27.7,0000.0,0008.85,0005.50,0005.00
2022-07-30 13:43:00,,0830.4,5.00,0.00,30.1,29.0,00.0,38.9,32.0,27.9,0000.0,0009.31,0005.51,0005.00
2022-07-30 13:44:00,,0830.3,5.01,0.00,30.1,29.0,00.0,38.9,32.0,27.2,0000.0,0009.36,0005.52,0005.00
2022-07-30 13:45:00,,0830.4,5.01,0.00,30.1,29.0,00.0,38.9,32.0,27.6,0000.0,0009.38,0005.52,0005.00
2022-07-30 13:46:00,,0830.4,5.00,0.00,30.1,29.1,00.0,38.9,32.0,27.8,0000.0,0009.42,0005.51,0005.00
2022-07-30 13:47:00,,0830.4,4.99,0.00,30.2,29.1,00.0,38.9,32.0,27.7,0000.0,0009.43,0005.52,0005.00
2022-07-30 13:48:00,,0830.3,5.00,0.00,30.2,29.1,00.0,38.9,32.1,27.1,0000.0,0009.50,0005.53,0004.99
2022-07-30 13:49:00,,0830.4,5.00,0.00,30.2,29.1,00.0,38.9,32.1,27.4,0000.0,0009.70,0005.54,0004.98
2022-07-30 13:50:00,,0830.4,5.01,0.00,30.2,29.2,00.0,39.0,32.1,26.9,0000.0,0009.70,0005.54,0004.98
2022-07-30 13:51:00,,0830.4,5.00,0.00,30.2,29.2,00.0,39.0,32.1,26.9,0000.0,0009.72,0005.56,0004.97
2022-07-30 13:52:00,,0830.4,4.99,0.00,30.2,29.2,00.0,39.0,32.1,26.6,0000.0,0009.74,0005.56,0004.96
2022-07-30 13:53:00,,0830.4,5.00,0.00,30.2,29.2,00.0,39.0,32.1,26.8,0000.0,0009.53,0005.55,0004.95
2022-07-30 13:54:00,,0830.4,4.99,0.00,30.2,29.2,00.0,39.0,32.1,26.4,0000.0,0009.11,0005.50,0004.94
2022-07-30 13:55:00,,0830.5,5.01,0.00,30.3,29.3,00.0,39.0,32.1,26.8,0000.0,0009.21,0005.50,0004.92
2022-07-30 13:56:00,,0830.5,5.00,0.00,30.3,29.2,00.0,39.0,32.2,26.9,0000.0,0009.26,0005.50,0004.91
2022-07-30 13:57:00,,0830.4,5.00,0.00,30.3,28.6,00.0,39.0,32.0,26.8,0000.0,0009.11,0005.46,0004.90
2022-07-30 13:58:00,,0830.4,5.01,0.00,30.2,27.9,00.0,39.0,31.8,26.7,0000.0,0008.91,0005.40,0004.89
2022-07-30 13:59:00,,0830.4,5.00,0.00,30.1,27.7,00.0,38.9,31.8,27.0,0000.0,0008.72,0005.36,0004.88
